FENGYUN 1C DEB, 30942

Orbit data source: Space-Track

FENGYUN 1C DEB, 30942 is space debris in SSO originally from a launch on Mon, 10 May 1999 UTC launched from the Taiyaun Space Center, China (TSC). Fengyun 1C debris stems from the Chinese weather satellite Fengyun-1C, which was intentionally destroyed by a Chinese anti-satellite missile in 2007. This event dramatically increased the amount of space debris, with thousands of trackable fragments posing hazards to satellites and human spaceflight. The Fengyun 1C debris cloud has become a focal point in discussions about space sustainability and the need for international regulations to prevent the creation of new debris.

Loading next visibility...
Identifier
30942, 1999-025BAG
Orbit
SSO
Country
Flag of CNCN / PRC
Related business
Manufacturer
Unknown
Mission
Spacecraft
Bus & Motor
Unknown
Mass
Unknown
Launch date (UTC)
1999-05-10 (27 years ago)
Launch vehicle
Unknown
Launch site
Taiyaun Space Center, China (TSC)
Object type
Payload
Rocket body
Debris
Shape & HBR
Unknown shape, 0.1 m
Radar Cross Section
Medium (>0.1 m² and <1 m²)

Expand to show TLE details & history
Last TLE update: 2 days ago

TLE from 2 days ago
0 FENGYUN 1C DEB
1 30942U 99025BAG 26165.79442403  .00000294  00000-0  15993-3 0  9991
2 30942  98.6859 164.1846 0135614 300.3015 241.1071 14.15040902992470
Epoch: 2026-06-14T19:03Z
TLE epoch observation values (Epoch: 2026-06-14T19:03:58.236Z)
Latitude
-0.17517°
Longitude
155.07528°
Altitude
893.433 km
Speed
7.381 km/s
True Right ascension
22h 56m 37s
True Declination
0° 10' 27"
Sunlit
Object was in daylight at epoch
Visualization orbit readout
Latitude
Unknown
Longitude
Unknown
Altitude
Unknown
Speed
Unknown
Apparent Right ascension
Unknown
Apparent Declination
Unknown
Sunlit
N/A
Visualization observer readout
Local Sidereal Time
23:26:14
Azimuth
Unknown
Elevation
Unknown
Doppler factor
Unknown
Orbital elements
Apogee altitude
937.215 km
Perigee altitude
741.457 km
Semi-major axis
7,217.473 km
Eccentricity
0.01356
Inclination
98.6859°
RAAN
164.1846°
Arg. of periapsis
300.3015°
True anomaly
239.7577°
Mean anomaly
241.1071°
Eccentric anomaly
240.43128°
Mean motion
3.53969 °/min
Orbital period
101.7 mins
BSTAR
0.00015993
Loading maneuver chart data...
Computing Atmospheric mass density...

Documentation

Showing up to 5 results
|